STARLINK-1719, 46331

Orbit data source: Space-Track

STARLINK-1719, 46331 is a payload satellite owned by SpaceX/Seattle (US) in LEO that was launched on Thu, 03 Sep 2020 UTC via an FALCON 9 launch vehicle from the Air Force Eastern Test Range (AFETR). Payload-class satellites include a variety of spacecraft equipped with specific instruments for various scientific and technological missions. These include communications satellites like Starlink; space stations such as the ISS; scientific satellites like the Hubble; Earth observation satellites from companies like Planet Labs, Umbra, and HawkEye 360; GPS; miniature CubeSats for education and research; and military/defense satellites.

Loading next visibility...
Identifier
46331, 2020-062G
Orbit
LEO
Country
Flag of USUS
Related business
Manufacturer
SpaceX/Seattle
Mission
Partially operational Commercial Communications
Bus & Motor
STARLINK, Unknown motor
Mass
260 kg wet, ~248 kg dry
Launch date (UTC)
2020-09-03 (6 years ago)
Launch vehicle
FALCON 9
Launch site
Air Force Eastern Test Range (AFETR)
Object type
Payload
Rocket body
Debris
Shape & HBR
Box + 1 Pan, 10.1 m
Radar Cross Section
13.562 m², Large (>1 m²)

Expand to show TLE details & history
Last TLE update: 6 hours ago

TLE from 6 hours ago
0 STARLINK-1719
1 46331U 20062G   26166.66667824  .00148192  00000-0  66148-3 0  9996
2 46331  53.0315 215.2257 0003282  29.2542 342.1686 15.83319104  6000
Epoch: 2026-06-15T16:00Z
TLE epoch observation values (Epoch: 2026-06-15T16:00:00.999Z)
Latitude
9.07151°
Longitude
78.13498°
Altitude
319.15 km
Speed
7.72 km/s
True Right ascension
14h 48m 21s
True Declination
9° 00' 53"
Sunlit
Object was in full shadow at epoch
Visualization orbit readout
Latitude
Unknown
Longitude
Unknown
Altitude
Unknown
Speed
Unknown
Apparent Right ascension
Unknown
Apparent Declination
Unknown
Sunlit
N/A
Visualization observer readout
Local Sidereal Time
08:33:40
Azimuth
Unknown
Elevation
Unknown
Doppler factor
Unknown
Orbital elements
Apogee altitude
323.544 km
Perigee altitude
319.147 km
Semi-major axis
6,699.482 km
Eccentricity
0.00033
Inclination
53.0315°
RAAN
215.2257°
Arg. of periapsis
29.2542°
True anomaly
342.15708°
Mean anomaly
342.1686°
Eccentric anomaly
342.16284°
Mean motion
3.95805 °/min
Orbital period
90.95 mins
BSTAR
0.00066148
Loading maneuver chart data...
Computing Atmospheric mass density...

Documentation

Showing up to 5 results
|